Погода в Вознесенской

Россия / Краснодарский край     44°33′05″N   41°01′42″E
темп.,
°C
ветер,
м/с
пор.,
м/с
влажн.,
%
обл.,
%
осадки,
мм/ч
давл.,
гПа
погр.,
м
27 октября, ср
ср2700:00+1вюв24860 0.0 103055
03:000юв23831 0.0 102935
06:000юв22800 0.0 102825
09:00+5юв22560 0.0 1027170
12:00+11ссв11400 0.0 1024523
15:00+12ссз11380 0.0 1023645
18:00+7юз11530 0.0 102310
21:00+5ююз33650 0.0 102421
28 октября, чт
чт2800:00+4ююз33750 0.0 102424
03:00+4ююз33790 0.0 102421
06:00+3ююз22800 0.0 102510
09:00+7зюз22610 0.0 1025189
12:00+11сз33500 0.0 1024735
15:00+11сз446015 0.0 10231007
18:00+7ссз2284100 0.0 102436
21:00+8зюз2476100 0.0 1024175
29 октября, пт
пт2900:00+7з2372100 0.0 1024170
03:00+7з1268100 0.0 102599
06:00+6юз127290 0.0 102560
09:00+8юз227282 0.0 1026313
12:00+11сз225677 0.0 10251042
15:00+12с3349100 0.0 10251063
18:00+7всв346295 0.0 102775
21:00+7вюв346589 0.0 1027109
30 октября, сб
сб3000:00+7вюв376083 0.0 1027242
03:00+5вюв38695 0.0 1028154
06:00+4вюв410730 0.0 1028207
09:00+8вюв612610 0.0 1028558
12:00+12в811500 0.0 10271151
15:00+12в710450 0.0 10261280
18:00+8в613575 0.0 1028563
21:00+7в7146251 0.0 1027571
31 октября, вс
вс3100:00+6вюв613605 0.0 1027463
03:00+5вюв510655 0.0 1027294
06:00+4вюв47742 0.0 1027155
09:00+8вюв57640 0.0 1026304
12:00+13вюв67510 0.0 1024619
15:00+12в77597 0.0 1023628
18:00+7вюв6108249 0.0 1024282
21:00+7юв2384100 0.0 102455